Date String (YYYY-MM-DD hh:mm:ss) UTC,Instrument flags,absolute air pressure of the measurement (hPa),sample flow rate (lpm),inlet stack bypass flow (lpm),air temperature of the measurement (°C),ambient temperature measured by the external sensor (°C),aerosol sample conditioner tube jacket temperature (°C),OPC LED temperature (°C),internal box temperature (°C),relative humidity of the measurement (%),span deviation,mass concentration of particles derived from Lorenz-Mie calculation of OPC scattering (μg/m³),mass concentration of particles derived from Lorenz-Mie calculation of OPC scattering (μg/m³),mass concentration of particles derived from Lorenz-Mie calculation of OPC scattering (μg/m³)
DateTimeUTC,F1_M11,P_M11,Q1_M11,Q2_M11,T1_M11,T2_M11,T3_M11,T4_M11,T5_M11,U1_M11,ZSPAN_M11,X0_M11,X2_M11,X1_M11
2023-08-28 08:00:00,SystemResetWarning,0836.4,4.98,000.00,030.8,025.5,000.0,038.5,030.5,34.5,0000.5,0007.45,0004.59,0004.22
2023-08-28 08:01:00,SystemResetWarning,0836.5,5.00,000.00,030.9,025.9,000.0,038.5,030.6,34.4,0000.5,0007.81,0004.58,0004.22
2023-08-28 08:02:00,SystemResetWarning,0836.4,5.02,000.00,030.9,026.2,000.0,038.6,030.6,34.2,0000.3,0008.13,0004.62,0004.23
2023-08-28 08:03:00,SystemResetWarning,0836.5,4.99,000.00,030.9,026.5,000.0,038.6,030.6,34.2,0000.6,0008.39,0004.70,0004.24
2023-08-28 08:04:00,SystemResetWarning,0836.5,4.99,000.00,030.9,026.7,000.0,038.7,030.7,34.3,0000.0,0008.55,0004.74,0004.25
2023-08-28 08:05:00,SystemResetWarning,0836.4,5.00,000.00,030.9,026.9,000.0,038.8,030.7,34.3,0000.0,0008.69,0004.80,0004.25
2023-08-28 08:06:00,SystemResetWarning,0836.5,5.01,000.00,030.9,027.1,000.0,038.8,030.7,34.3,0000.0,0008.97,0004.81,0004.24
2023-08-28 08:07:00,SystemResetWarning,0836.4,5.00,000.00,030.9,027.2,000.0,038.8,030.7,34.4,0000.0,0009.16,0004.80,0004.25
2023-08-28 08:08:00,SystemResetWarning,0836.5,5.01,000.00,030.9,027.3,000.0,038.9,030.8,34.5,0000.0,0009.48,0004.84,0004.24
2023-08-28 08:09:00,SystemResetWarning,0836.4,5.00,000.00,030.8,027.4,000.0,038.9,030.8,34.6,0000.0,0009.50,0004.85,0004.26
2023-08-28 08:10:00,SystemResetWarning,0836.4,4.99,000.00,030.8,027.5,000.0,038.9,030.8,34.5,0000.0,0010.10,0004.86,0004.25
2023-08-28 08:11:00,SystemResetWarning,0836.4,5.00,000.00,030.8,027.5,000.0,038.9,030.8,34.5,0000.0,0010.74,0004.89,0004.26
2023-08-28 08:12:00,SystemResetWarning,0836.4,5.00,000.00,030.8,027.6,000.0,039.0,030.8,34.5,0000.0,0010.57,0004.95,0004.27
2023-08-28 08:13:00,SystemResetWarning,0836.4,5.00,000.00,030.7,027.7,000.0,039.0,030.9,34.6,0000.0,0010.45,0004.99,0004.27
2023-08-28 08:14:00,SystemResetWarning,0836.4,5.00,000.00,030.7,027.7,000.0,039.0,030.9,34.6,0000.0,0010.39,0004.99,0004.28
2023-08-28 08:15:00,SystemResetWarning,0836.4,5.00,000.00,030.7,027.7,000.0,039.0,030.9,34.7,0000.0,0010.32,0004.99,0004.28
2023-08-28 08:16:00,SystemResetWarning,0836.3,5.01,000.00,030.6,027.8,000.0,039.0,031.0,34.8,0000.0,0011.28,0004.99,0004.29
2023-08-28 08:17:00,SystemResetWarning,0836.4,4.99,000.00,030.6,027.4,000.0,038.9,030.9,34.9,0000.0,0012.40,0005.03,0004.29
2023-08-28 08:18:00,SystemResetWarning,0836.3,5.01,000.00,030.6,025.5,000.0,038.7,030.7,35.1,0000.0,0012.52,0005.08,0004.31
2023-08-28 08:19:00,SystemResetWarning,0836.3,5.02,000.00,030.7,024.7,000.0,038.6,030.6,35.0,0000.0,0013.29,0005.06,0004.30
2023-08-28 08:20:00,SystemResetWarning,0836.3,4.97,000.00,030.8,024.7,000.0,038.6,030.4,34.9,0000.0,0014.13,0005.08,0004.29
2023-08-28 08:21:00,SystemResetWarning,0836.3,5.01,000.00,030.7,025.0,000.0,038.6,030.4,34.9,0000.0,0014.45,0005.14,0004.30
2023-08-28 08:22:00,SystemResetWarning,0836.2,4.99,000.00,030.7,025.4,000.0,038.6,030.4,35.1,0000.0,0013.85,0005.16,0004.30
2023-08-28 08:23:00,SystemResetWarning,0836.2,5.03,000.00,030.9,025.8,000.0,038.7,030.6,34.8,0000.0,0014.84,0005.18,0004.31
2023-08-28 08:24:00,SystemResetWarning,0836.2,4.97,000.00,031.0,026.1,000.0,038.7,030.7,34.4,0000.0,0014.80,0005.15,0004.30
2023-08-28 08:25:00,SystemResetWarning,0836.2,5.02,000.00,031.0,026.4,000.0,038.7,030.7,34.1,0000.0,0014.68,0005.12,0004.30
2023-08-28 08:26:00,SystemResetWarning,0836.2,4.98,000.00,031.0,026.7,000.0,038.8,030.7,34.0,0000.7,0014.97,0005.16,0004.31
2023-08-28 08:27:00,SystemResetWarning,0836.2,4.99,000.00,031.0,026.9,000.0,038.8,030.7,33.9,0000.0,0014.67,0005.17,0004.31
2023-08-28 08:28:00,SystemResetWarning,0836.2,5.00,000.00,031.0,027.0,000.0,038.9,030.8,33.8,0000.2,0013.22,0005.21,0004.31
2023-08-28 08:29:00,SystemResetWarning,0836.2,5.00,000.00,031.0,027.2,000.0,038.9,030.8,33.8,0000.0,0012.99,0005.22,0004.31
2023-08-28 08:30:00,SystemResetWarning,0836.3,5.01,000.00,031.0,027.3,000.0,039.0,030.8,33.7,0000.7,0012.10,0005.22,0004.32
2023-08-28 08:31:00,SystemResetWarning,0836.3,5.00,000.00,031.0,027.4,000.0,039.0,030.8,33.6,0001.8,0011.55,0005.22,0004.33
2023-08-28 08:32:00,SystemResetWarning,0836.3,5.00,000.00,030.9,027.5,000.0,039.0,030.9,33.6,0001.9,0010.54,0005.14,0004.33
2023-08-28 08:33:00,SystemResetWarning,0836.3,5.00,000.00,030.9,027.6,000.0,039.0,030.9,33.6,0002.2,0010.76,0005.10,0004.31
2023-08-28 08:34:00,SystemResetWarning,0836.4,5.00,000.00,030.9,027.6,000.0,039.0,030.9,33.6,0002.3,0010.28,0005.09,0004.30
2023-08-28 08:35:00,SystemResetWarning,0836.4,5.00,000.00,030.8,027.7,000.0,039.0,030.9,33.6,0001.7,0009.81,0005.08,0004.30
2023-08-28 08:36:00,SystemResetWarning,0836.3,5.00,000.00,030.8,027.7,000.0,039.0,030.9,33.6,0001.3,0009.82,0005.07,0004.29
2023-08-28 08:37:00,SystemResetWarning,0836.3,5.00,000.00,030.8,027.7,000.0,039.0,030.9,33.7,0000.8,0009.69,0005.06,0004.28
2023-08-28 08:38:00,SystemResetWarning,0836.2,4.99,000.00,030.8,027.0,000.0,039.0,030.9,33.7,0000.6,0009.27,0004.97,0004.27
2023-08-28 08:39:00,SystemResetWarning,0836.2,5.00,000.00,030.7,025.2,000.0,038.8,030.6,33.7,0000.7,0009.08,0004.91,0004.26
2023-08-28 08:40:00,SystemResetWarning,0836.2,5.01,000.00,030.6,024.6,000.0,038.7,030.4,33.9,-000.3,0008.88,0004.83,0004.25
2023-08-28 08:41:00,SystemResetWarning,0836.2,5.01,000.00,030.4,024.7,000.0,038.7,030.1,34.3,-000.1,0008.71,0004.78,0004.23
2023-08-28 08:42:00,SystemResetWarning,0836.1,5.00,000.00,030.2,025.0,000.0,038.7,030.1,34.5,0000.0,0008.57,0004.73,0004.21
2023-08-28 08:43:00,SystemResetWarning,0836.2,4.99,000.00,030.1,025.4,000.0,038.6,030.2,34.7,0000.0,0008.43,0004.76,0004.21
2023-08-28 08:44:00,SystemResetWarning,0836.2,5.00,000.00,030.0,025.8,000.0,038.6,030.3,34.8,-000.4,0007.96,0004.75,0004.21
2023-08-28 08:45:00,SystemResetWarning,0836.2,5.00,000.00,030.0,026.1,000.0,038.6,030.3,34.8,-000.6,0007.61,0004.70,0004.20
2023-08-28 08:46:00,SystemResetWarning,0836.2,5.01,000.00,029.9,026.4,000.0,038.6,030.4,34.9,0000.4,0007.42,0004.64,0004.21
2023-08-28 08:47:00,SystemResetWarning,0836.1,4.99,000.00,029.9,026.6,000.0,038.5,030.4,35.0,0000.3,0007.41,0004.62,0004.20
2023-08-28 08:48:00,SystemResetWarning,0836.1,4.98,000.00,029.9,026.8,000.0,038.5,030.4,35.0,0000.0,0007.37,0004.60,0004.19
2023-08-28 08:49:00,SystemResetWarning,0836.1,5.04,000.00,029.9,026.9,000.0,038.5,030.5,34.9,0000.0,0007.42,0004.60,0004.18
2023-08-28 08:50:00,SystemResetWarning,0836.1,4.96,000.00,030.1,027.0,000.0,038.4,030.6,34.6,0000.2,0007.39,0004.59,0004.18
2023-08-28 08:51:00,SystemResetWarning,0836.1,5.03,000.00,030.1,027.1,000.0,038.4,030.6,34.4,0000.0,0007.42,0004.62,0004.20
2023-08-28 08:52:00,SystemResetWarning,0836.1,5.00,000.00,030.2,027.2,000.0,038.4,030.6,34.4,0000.0,0007.43,0004.64,0004.21
2023-08-28 08:53:00,SystemResetWarning,0836.1,5.00,000.00,030.2,027.3,000.0,038.4,030.6,34.3,0000.3,0007.48,0004.68,0004.23
2023-08-28 08:54:00,SystemResetWarning,0836.1,4.99,000.00,030.2,027.4,000.0,038.4,030.6,34.3,0000.5,0007.37,0004.63,0004.23
2023-08-28 08:55:00,SystemResetWarning,0836.1,5.00,000.00,030.1,027.4,000.0,038.5,030.6,34.3,0000.8,0007.33,0004.63,0004.23
2023-08-28 08:56:00,SystemResetWarning,0836.0,5.00,000.00,030.1,027.5,000.0,038.5,030.7,34.3,0000.9,0007.30,0004.62,0004.23
2023-08-28 08:57:00,SystemResetWarning,0836.0,5.01,000.00,030.1,027.5,000.0,038.5,030.7,34.3,0000.5,0007.43,0004.65,0004.23
2023-08-28 08:58:00,SystemResetWarning,0836.0,5.00,000.00,030.1,027.5,000.0,038.5,030.7,34.3,0000.7,0007.50,0004.67,0004.23
2023-08-28 08:59:00,SystemResetWarning,0835.9,5.00,000.00,030.1,027.6,000.0,038.5,030.7,34.3,0001.0,0007.51,0004.68,0004.22
